Temp
6 4 3 2 2 2 2 3 2 1 3 3 2 2 1 1 0 -0 -1 -1 0 0 1 2 1 1 1 1 1 1 0 0
6 7 4 1 2 2 1 2 1 1 1 1 1 1 1 1 -0 -0 -1 0 -1 0 1 1 1 1 1 1 1 1 0 -0
6 7 6 6 3 3 2 2 3 1 1 0 0 1 1 1 0 -0 1 0 0 0 1 1 1 1 1 1 1 1 1 0
6 6 6 6 4 4 4 4 4 3 3 3 3 3 2 1 1 1 1 1 1 1 1 1 1 1 1 1 0 1 1 1
7 6 6 5 5 4 4 4 4 4 3 4 4 3 4 2 2 1 1 0 1 0 1 2 2 1 1 0 -0 -0 -0 0
7 6 6 6 5 4 4 4 4 4 4 4 4 3 3 2 2 2 1 2 1 2 1 1 1 1 1 0 0 0 0 0
7 6 5 6 6 5 5 4 4 4 4 4 3 3 3 2 2 3 2 2 2 1 1 1 1 1 1 1 0 0 -0 -0
7 7 7 6 6 6 6 5 5 5 4 4 4 3 3 3 3 3 2 2 2 2 2 1 1 1 1 0 0 0 -0 -0
7 7 7 6 6 6 6 6 5 5 5 5 5 4 4 3 3 3 3 2 2 1 1 1 1 1 0 0 -1 -0 -1 -1
7 7 7 6 6 6 6 6 6 6 5 5 5 5 4 4 3 3 3 2 2 2 1 1 1 1 1 0 -0 -1 -1 -1
7 7 7 7 6 6 6 6 6 6 5 5 5 5 4 4 3 3 3 2 1 1 1 1 -0 1 1 0 -0 -0 -1 -2
7 7 7 6 6 6 6 6 6 6 5 5 5 5 4 4 3 3 3 2 2 1 1 1 0 1 1 0 -0 -1 -1 -3
7 7 7 7 7 6 6 6 6 6 5 5 5 4 4 3 3 2 2 1 1 1 1 0 1 1 0 0 -0 -2 -2 -3
7 7 7 7 6 6 6 6 6 5 5 5 5 5 4 3 3 3 2 0 1 1 1 1 1 1 0 -0 -0 -2 -3 -2
7 7 7 6 6 6 6 7 6 6 5 5 5 5 4 4 3 2 1 1 1 2 1 1 1 0 -0 -1 -1 -2 -2 -3
7 7 7 6 6 6 6 6 6 6 5 5 4 4 4 3 2 2 2 2 2 1 1 1 1 0 -1 -1 -2 -2 -3 -3
7 7 6 6 6 6 6 5 5 5 5 4 4 4 3 3 2 3 2 2 2 1 1 1 1 0 -1 -1 -2 -2 -3 -4
7 7 7 7 6 6 6 5 5 4 4 3 3 3 3 3 3 3 2 2 1 1 1 0 -1 -0 -1 -2 -2 -3 -4 -5
7 6 6 6 6 5 5 5 4 3 3 3 3 2 2 2 2 2 2 2 2 1 0 0 -0 -1 -2 -3 -4 -5 -5 -6
Height
3076 3073 3074 3074 3077 3080 3081 3083 3087 3091 3092 3094 3094 3096 3105 3108 3112 3117 3122 3126 3133 3139 3142 3145 3149 3151 3153 3154 3155 3155 3156 3156
3081 3077 3071 3071 3075 3077 3081 3083 3085 3087 3089 3090 3094 3099 3103 3106 3110 3117 3122 3125 3130 3136 3141 3143 3146 3148 3150 3151 3152 3152 3152 3152
3081 3082 3078 3076 3076 3076 3078 3081 3082 3084 3085 3089 3095 3098 3101 3105 3111 3118 3123 3127 3130 3136 3138 3141 3142 3144 3146 3148 3148 3147 3147 3147
3083 3082 3084 3084 3080 3079 3081 3083 3084 3085 3087 3092 3097 3099 3102 3106 3110 3118 3122 3126 3130 3133 3136 3137 3138 3139 3142 3143 3143 3143 3144 3143
3086 3086 3086 3086 3082 3083 3082 3084 3086 3089 3092 3097 3099 3101 3104 3108 3113 3117 3119 3123 3127 3129 3131 3132 3132 3135 3137 3139 3139 3138 3138 3138
3087 3087 3086 3085 3084 3084 3085 3086 3089 3092 3096 3100 3103 3104 3107 3110 3114 3115 3118 3121 3124 3126 3126 3128 3128 3130 3133 3133 3133 3132 3132 3133
3084 3086 3085 3084 3084 3086 3086 3088 3090 3094 3097 3099 3101 3103 3105 3107 3110 3111 3115 3117 3119 3119 3121 3123 3126 3127 3128 3128 3128 3127 3125 3126
3080 3081 3081 3082 3083 3084 3085 3088 3091 3094 3096 3098 3099 3101 3103 3106 3108 3109 3110 3112 3113 3115 3117 3118 3119 3121 3122 3122 3122 3121 3119 3116
3077 3078 3079 3079 3081 3083 3085 3088 3090 3091 3093 3095 3096 3098 3101 3103 3104 3105 3106 3107 3109 3110 3111 3112 3113 3114 3114 3114 3113 3111 3109 3106
3075 3076 3077 3078 3079 3080 3081 3083 3086 3087 3089 3091 3093 3095 3097 3098 3100 3100 3101 3102 3103 3104 3104 3105 3105 3106 3105 3105 3105 3100 3102 3097
3071 3073 3075 3075 3076 3078 3077 3079 3080 3084 3086 3087 3089 3091 3092 3093 3093 3094 3095 3096 3096 3097 3098 3099 3100 3100 3100 3099 3098 3094 3096 3092
3067 3069 3070 3071 3071 3072 3073 3074 3076 3078 3080 3082 3083 3084 3085 3086 3086 3087 3087 3088 3088 3090 3091 3091 3091 3093 3093 3091 3090 3089 3088 3086
3063 3065 3066 3066 3067 3067 3068 3069 3071 3073 3076 3077 3078 3078 3078 3078 3079 3079 3078 3079 3081 3083 3083 3083 3085 3085 3084 3083 3081 3081 3080 3078
3058 3059 3061 3062 3063 3064 3065 3066 3067 3069 3071 3072 3072 3071 3070 3070 3070 3069 3069 3066 3066 3073 3075 3076 3078 3078 3077 3074 3072 3072 3071 3069
3055 3055 3057 3059 3059 3059 3060 3062 3063 3064 3065 3065 3065 3064 3063 3063 3061 3062 3059 3061 3067 3065 3068 3069 3069 3069 3067 3065 3064 3063 3063 3060
3052 3052 3053 3055 3056 3056 3057 3058 3058 3058 3058 3057 3058 3058 3058 3058 3056 3052 3057 3057 3059 3058 3059 3060 3059 3059 3058 3055 3054 3053 3053 3051
3048 3048 3049 3050 3050 3051 3051 3051 3053 3053 3052 3052 3052 3050 3051 3052 3052 3051 3051 3051 3050 3050 3051 3051 3050 3049 3047 3045 3047 3045 3044 3042
3042 3044 3045 3045 3045 3045 3045 3045 3045 3045 3045 3045 3045 3045 3045 3045 3044 3044 3043 3042 3042 3042 3042 3042 3041 3040 3038 3037 3036 3034 3033 3030
3038 3038 3039 3039 3039 3039 3040 3039 3038 3038 3039 3039 3039 3039 3038 3037 3036 3035 3035 3034 3033 3032 3032 3032 3030 3027 3030 3029 3026 3024 3022 3020
Wind_Speed
18 3 9 12 14 15 14 22 13 16 21 27 39 41 28 28 22 26 33 33 32 26 27 25 19 17 16 13 14 15 15 13
13 16 6 11 13 16 15 16 15 22 23 21 25 22 19 22 21 28 33 27 27 32 27 24 19 17 16 17 17 16 15 14
9 12 14 17 15 19 19 18 19 15 12 17 22 22 20 22 27 28 28 30 32 28 27 22 16 18 17 18 19 19 17 18
5 7 10 11 19 19 19 20 20 22 24 26 27 29 29 28 29 31 30 27 27 27 25 21 18 18 19 21 22 23 21 21
2 4 4 7 13 14 16 18 18 18 19 19 19 20 19 23 27 25 26 27 29 23 20 19 19 20 23 21 24 25 26 24
4 5 5 5 7 10 12 13 15 16 15 15 14 16 15 15 17 19 21 21 22 23 20 21 21 23 23 23 24 28 29 29
7 10 11 8 9 9 10 11 11 11 12 13 12 12 14 16 17 16 17 18 17 19 18 18 19 23 25 25 25 30 33 35
11 11 12 12 10 9 9 10 10 11 12 12 12 14 15 13 13 13 14 15 17 16 19 19 20 22 23 23 29 31 38 38
12 11 9 10 13 13 13 12 13 11 11 10 10 12 16 17 17 16 17 18 18 20 22 23 23 24 26 28 28 37 36 42
15 15 15 13 12 11 14 17 15 15 13 14 15 16 17 17 18 19 21 21 25 25 25 25 25 25 25 22 29 32 35 42
14 17 18 18 17 17 15 14 16 17 19 21 22 22 21 21 22 23 23 24 27 29 29 24 20 24 25 24 24 25 35 29
12 10 15 19 19 22 21 18 16 16 16 20 23 25 26 26 28 29 27 27 27 29 29 28 23 25 25 24 22 20 20 21
12 12 12 15 19 22 21 21 20 19 17 18 18 21 26 29 30 35 37 34 29 26 28 29 28 27 25 25 24 22 28 26
15 14 13 11 12 15 18 18 19 19 19 20 22 24 25 26 31 37 40 29 16 26 28 28 26 28 30 32 31 21 28 34
17 17 14 14 14 14 16 16 16 18 21 22 23 23 22 26 30 33 35 17 20 21 26 26 29 30 31 31 32 27 32 36
19 23 20 16 18 17 17 18 17 14 19 22 24 24 26 28 33 27 21 20 22 24 27 29 35 37 35 37 29 30 36 42
13 17 20 20 22 21 23 21 19 18 20 22 23 23 26 26 25 26 26 27 27 29 31 34 37 36 33 37 37 35 34 38
15 16 20 24 26 26 27 26 23 23 23 22 22 26 29 29 29 30 31 33 34 36 38 38 39 38 34 37 39 33 32 32
17 19 20 23 25 28 29 28 26 25 27 26 30 31 33 34 36 36 36 37 40 38 38 40 46 35 38 45 34 30 31 35
Wind_Direction
27 314 218 197 184 186 212 216 219 206 231 243 230 220 214 212 214 214 196 192 182 187 201 207 214 220 223 240 252 251 245 243
37 34 55 158 174 179 174 208 228 222 210 209 198 199 180 177 183 183 185 179 187 196 212 213 224 227 233 245 252 260 260 257
35 50 64 103 124 127 137 149 135 165 168 191 195 192 177 162 180 192 187 186 188 206 214 214 212 231 243 258 263 268 269 267
26 56 77 112 125 125 128 124 123 124 125 133 145 149 150 155 164 177 171 178 195 207 218 222 229 241 252 260 262 267 272 271
123 106 91 111 127 139 137 136 138 140 143 147 145 148 151 161 171 180 183 197 208 210 204 214 223 240 251 263 261 265 266 270
223 177 165 140 125 147 147 150 155 156 155 158 157 156 162 172 184 189 200 209 217 222 224 229 236 250 255 271 271 270 271 271
230 208 209 192 178 177 172 175 177 177 175 179 177 178 180 190 196 201 209 216 226 230 239 246 246 252 264 271 280 279 278 278
241 246 234 226 227 209 195 194 200 201 207 208 200 197 208 217 218 222 225 229 238 248 252 256 261 263 271 275 276 283 280 274
235 246 257 256 246 243 239 228 218 224 221 224 223 225 224 228 234 233 238 240 239 243 255 256 260 264 268 265 278 268 288 266
244 245 249 261 262 264 263 253 248 244 245 243 242 235 236 243 244 245 245 243 245 251 251 251 259 273 290 301 284 274 293 296
242 252 253 258 260 260 258 247 253 256 254 255 259 260 251 252 251 251 249 248 247 245 246 254 270 276 282 290 291 275 286 295
244 272 280 254 261 262 263 267 257 252 258 255 258 262 263 260 262 263 260 254 248 248 253 257 267 271 268 283 283 266 289 296
267 274 277 303 268 264 262 262 265 268 268 265 268 265 262 255 256 257 257 254 254 253 257 262 264 269 271 278 289 280 282 289
269 261 270 297 268 258 258 259 258 260 260 260 264 271 272 270 266 266 259 266 257 249 256 263 268 269 283 282 284 290 286 278
256 255 264 273 274 263 262 268 269 261 259 261 268 281 278 289 285 280 263 279 268 260 263 267 273 273 278 289 280 274 274 256
253 260 250 256 260 259 268 275 291 290 280 274 273 270 277 278 282 272 284 270 268 267 268 272 280 280 277 277 272 275 291 267
247 236 243 252 263 264 271 264 260 280 275 271 267 274 275 275 275 275 275 275 273 271 264 268 274 272 292 241 268 284 263 279
250 248 262 273 279 278 281 279 278 273 268 267 271 275 273 272 272 272 271 270 268 265 263 257 261 277 258 276 261 264 281 280
255 263 270 273 275 276 273 272 280 272 268 272 277 272 269 269 269 272 269 269 267 264 259 265 269 246 265 283 273 287 281 277